カタログに戻る

ONEWEB-0571

運用中通信PO
NORAD 55150·PAYLOAD·🇬🇧 United Kingdom

打ち上げ Jan 10, 2023 から Cape Canaveral Space Force Station

Loading…

次のパス (今後24時間)

TLE

最新Source: CelesTrak SupGP

元期: Sep 14, 2026, 08:43 UTC

1 55150C 23004L   26257.36338380 -.00003597  00000+0 -91363-2 0  2577
2 55150  87.9158 317.7461 0000861  72.3390 339.4377 13.18687966    16

AllMySatでONEWEB-0571をリアルタイム追跡

Download on the App Store